Time,TemperatureF,DewpointF,PressureIn,WindDirection,WindDirectionDegrees,WindSpeedMPH,WindSpeedGustMPH,Humidity,HourlyPrecipIn,Conditions,Clouds,dailyrainin,SoftwareType,DateUTC
2013-06-04 00:03:00,81.0,-99.9,-100.00,North,-999,-999.0,-999.0,-999,-99.99,,,-99.99,,2013-06-04 04:03:00,
2013-06-04 00:13:00,81.0,-99.9,29.91,North,-999,-999.0,-999.0,-999,-99.99,,,-99.99,,2013-06-04 04:13:00,
2013-06-04 00:23:00,81.0,-99.9,-100.00,North,-999,-999.0,-999.0,-999,-99.99,,,-99.99,,2013-06-04 04:23:00,
2013-06-04 00:33:00,81.0,-99.9,-100.00,North,-999,-999.0,-999.0,-999,-99.99,,,-99.99,,2013-06-04 04:33:00,
2013-06-04 00:42:00,80.0,-99.9,29.91,North,-999,-999.0,-999.0,-999,-99.99,,,-99.99,,2013-06-04 04:42:00,
2013-06-04 01:12:00,80.0,-99.9,29.91,North,-999,-999.0,-999.0,-999,-99.99,,,-99.99,,2013-06-04 05:12:00,
2013-06-04 01:22:00,79.0,-99.9,-100.00,North,-999,-999.0,-999.0,-999,-99.99,,,-99.99,,2013-06-04 05:22:00,
2013-06-04 01:42:00,79.0,-99.9,29.90,North,-999,-999.0,-999.0,-999,-99.99,,,-99.99,,2013-06-04 05:42:00,
2013-06-04 02:12:00,78.0,-99.9,29.90,North,-999,-999.0,-999.0,-999,-99.99,,,-99.99,,2013-06-04 06:12:00,
2013-06-04 02:22:00,78.0,-99.9,-100.00,North,-999,-999.0,-999.0,-999,-99.99,,,-99.99,,2013-06-04 06:22:00,
2013-06-04 02:42:00,78.0,-99.9,29.89,North,-999,-999.0,-999.0,-999,-99.99,,,-99.99,,2013-06-04 06:42:00,
2013-06-04 03:02:00,77.0,-99.9,-100.00,North,-999,-999.0,-999.0,-999,-99.99,,,-99.99,,2013-06-04 07:02:00,
2013-06-04 03:13:00,77.0,-99.9,-100.00,North,-999,-999.0,-999.0,-999,-99.99,,,-99.99,,2013-06-04 07:13:00,
2013-06-04 03:22:00,77.0,-99.9,-100.00,North,-999,-999.0,-999.0,-999,-99.99,,,-99.99,,2013-06-04 07:22:00,
2013-06-04 03:32:00,77.0,-99.9,-100.00,North,-999,-999.0,-999.0,-999,-99.99,,,-99.99,,2013-06-04 07:32:00,
2013-06-04 03:42:00,77.0,-99.9,29.89,North,-999,-999.0,-999.0,-999,-99.99,,,-99.99,,2013-06-04 07:42:00,
2013-06-04 04:02:00,76.0,-99.9,-100.00,North,-999,-999.0,-999.0,-999,-99.99,,,-99.99,,2013-06-04 08:02:00,
2013-06-04 04:12:00,76.0,-99.9,29.90,North,-999,-999.0,-999.0,-999,-99.99,,,-99.99,,2013-06-04 08:12:00,
2013-06-04 04:22:00,77.0,-99.9,-100.00,North,-999,-999.0,-999.0,-999,-99.99,,,-99.99,,2013-06-04 08:22:00,
2013-06-04 04:42:00,76.0,-99.9,29.90,North,-999,-999.0,-999.0,-999,-99.99,,,-99.99,,2013-06-04 08:42:00,
2013-06-04 04:52:00,76.0,-99.9,-100.00,North,-999,-999.0,-999.0,-999,-99.99,,,-99.99,,2013-06-04 08:52:00,
2013-06-04 05:13:00,76.0,-99.9,29.91,North,-999,-999.0,-999.0,-999,-99.99,,,-99.99,,2013-06-04 09:13:00,
2013-06-04 05:22:00,76.0,-99.9,-100.00,North,-999,-999.0,-999.0,-999,-99.99,,,-99.99,,2013-06-04 09:22:00,
2013-06-04 05:43:00,76.0,-99.9,29.91,North,-999,-999.0,-999.0,-999,-99.99,,,-99.99,,2013-06-04 09:43:00,
2013-06-04 06:03:00,75.0,-99.9,-100.00,North,-999,-999.0,-999.0,-999,-99.99,,,-99.99,,2013-06-04 10:03:00,
2013-06-04 06:12:00,75.0,-99.9,29.92,North,-999,-999.0,-999.0,-999,-99.99,,,-99.99,,2013-06-04 10:12:00,
2013-06-04 06:23:00,74.0,-99.9,-100.00,North,-999,-999.0,-999.0,-999,-99.99,,,-99.99,,2013-06-04 10:23:00,
2013-06-04 06:42:00,74.0,-99.9,29.91,North,-999,-999.0,-999.0,-999,-99.99,,,-99.99,,2013-06-04 10:42:00,
2013-06-04 06:53:00,74.0,-99.9,-100.00,North,-999,-999.0,-999.0,-999,-99.99,,,-99.99,,2013-06-04 10:53:00,
2013-06-04 07:12:00,73.0,-99.9,29.91,North,-999,-999.0,-999.0,-999,-99.99,,,-99.99,,2013-06-04 11:12:00,
2013-06-04 07:22:00,73.0,-99.9,29.91,North,-999,-999.0,-999.0,-999,-99.99,,,-99.99,,2013-06-04 11:22:00,
2013-06-04 07:32:00,73.0,-99.9,29.91,North,-999,-999.0,-999.0,-999,-99.99,,,-99.99,,2013-06-04 11:32:00,
2013-06-04 07:43:00,73.0,-99.9,29.91,North,-999,-999.0,-999.0,-999,-99.99,,,-99.99,,2013-06-04 11:43:00,
2013-06-04 08:03:00,74.0,-99.9,-100.00,North,-999,-999.0,-999.0,-999,-99.99,,,-99.99,,2013-06-04 12:03:00,
2013-06-04 08:12:00,74.0,-99.9,-100.00,North,-999,-999.0,-999.0,-999,-99.99,,,-99.99,,2013-06-04 12:12:00,
2013-06-04 08:22:00,74.0,-99.9,-100.00,North,-999,-999.0,-999.0,-999,-99.99,,,-99.99,,2013-06-04 12:22:00,
2013-06-04 08:42:00,75.0,-99.9,29.90,North,-999,-999.0,-999.0,-999,-99.99,,,-99.99,,2013-06-04 12:42:00,
2013-06-04 08:53:00,76.0,-99.9,-100.00,North,-999,-999.0,-999.0,-999,-99.99,,,-99.99,,2013-06-04 12:53:00,
2013-06-04 09:03:00,76.0,-99.9,-100.00,North,-999,-999.0,-999.0,-999,-99.99,,,-99.99,,2013-06-04 13:03:00,
2013-06-04 09:12:00,76.0,-99.9,29.91,North,-999,-999.0,-999.0,-999,-99.99,,,-99.99,,2013-06-04 13:12:00,
2013-06-04 09:23:00,77.0,-99.9,-100.00,North,-999,-999.0,-999.0,-999,-99.99,,,-99.99,,2013-06-04 13:23:00,
2013-06-04 09:32:00,79.0,-99.9,-100.00,North,-999,-999.0,-999.0,-999,-99.99,,,-99.99,,2013-06-04 13:32:00,
2013-06-04 09:42:00,79.0,-99.9,29.92,North,-999,-999.0,-999.0,-999,-99.99,,,-99.99,,2013-06-04 13:42:00,
2013-06-04 10:12:00,80.0,-99.9,29.93,North,-999,-999.0,-999.0,-999,-99.99,,,-99.99,,2013-06-04 14:12:00,
2013-06-04 10:23:00,81.0,-99.9,-100.00,North,-999,-999.0,-999.0,-999,-99.99,,,-99.99,,2013-06-04 14:23:00,
2013-06-04 10:43:00,81.0,-99.9,29.94,North,-999,-999.0,-999.0,-999,-99.99,,,-99.99,,2013-06-04 14:43:00,
2013-06-04 11:02:00,83.0,-99.9,-100.00,North,-999,-999.0,-999.0,-999,-99.99,,,-99.99,,2013-06-04 15:02:00,
2013-06-04 11:12:00,83.0,-99.9,29.94,North,-999,-999.0,-999.0,-999,-99.99,,,-99.99,,2013-06-04 15:12:00,
2013-06-04 11:22:00,83.0,-99.9,-100.00,North,-999,-999.0,-999.0,-999,-99.99,,,-99.99,,2013-06-04 15:22:00,
2013-06-04 11:42:00,81.0,-99.9,29.95,North,-999,-999.0,-999.0,-999,-99.99,,,-99.99,,2013-06-04 15:42:00,
2013-06-04 12:13:00,82.0,-99.9,29.96,North,-999,-999.0,-999.0,-999,-99.99,,,-99.99,,2013-06-04 16:13:00,
2013-06-04 12:23:00,82.0,-99.9,-100.00,North,-999,-999.0,-999.0,-999,-99.99,,,-99.99,,2013-06-04 16:23:00,
2013-06-04 12:33:00,83.0,-99.9,-100.00,North,-999,-999.0,-999.0,-999,-99.99,,,-99.99,,2013-06-04 16:33:00,
2013-06-04 12:43:00,83.0,-99.9,-100.00,North,-999,-999.0,-999.0,-999,-99.99,,,-99.99,,2013-06-04 16:43:00,
2013-06-04 13:03:00,84.0,-99.9,29.96,North,-999,-999.0,-999.0,-999,-99.99,,,-99.99,,2013-06-04 17:03:00,
2013-06-04 13:12:00,84.0,-99.9,-100.00,North,-999,-999.0,-999.0,-999,-99.99,,,-99.99,,2013-06-04 17:12:00,
2013-06-04 13:23:00,84.0,-99.9,-100.00,North,-999,-999.0,-999.0,-999,-99.99,,,-99.99,,2013-06-04 17:23:00,
2013-06-04 13:42:00,84.0,-99.9,29.94,North,-999,-999.0,-999.0,-999,-99.99,,,-99.99,,2013-06-04 17:42:00,
2013-06-04 14:02:00,85.0,-99.9,-100.00,North,-999,-999.0,-999.0,-999,-99.99,,,-99.99,,2013-06-04 18:02:00,
2013-06-04 14:12:00,85.0,-99.9,29.94,North,-999,-999.0,-999.0,-999,-99.99,,,-99.99,,2013-06-04 18:12:00,
2013-06-04 14:42:00,86.0,-99.9,29.93,North,-999,-999.0,-999.0,-999,-99.99,,,-99.99,,2013-06-04 18:42:00,
2013-06-04 15:03:00,87.0,-99.9,-100.00,North,-999,-999.0,-999.0,-999,-99.99,,,-99.99,,2013-06-04 19:03:00,
2013-06-04 15:13:00,87.0,-99.9,-100.00,North,-999,-999.0,-999.0,-999,-99.99,,,-99.99,,2013-06-04 19:13:00,
2013-06-04 15:22:00,88.0,-99.9,-100.00,North,-999,-999.0,-999.0,-999,-99.99,,,-99.99,,2013-06-04 19:22:00,
2013-06-04 15:33:00,88.0,-99.9,-100.00,North,-999,-999.0,-999.0,-999,-99.99,,,-99.99,,2013-06-04 19:33:00,
2013-06-04 15:42:00,89.0,-99.9,-100.00,North,-999,-999.0,-999.0,-999,-99.99,,,-99.99,,2013-06-04 19:42:00,
2013-06-04 15:53:00,89.0,-99.9,-100.00,North,-999,-999.0,-999.0,-999,-99.99,,,-99.99,,2013-06-04 19:53:00,
2013-06-04 16:03:00,89.0,-99.9,29.90,North,-999,-999.0,-999.0,-999,-99.99,,,-99.99,,2013-06-04 20:03:00,
2013-06-04 16:13:00,89.0,-99.9,29.90,North,-999,-999.0,-999.0,-999,-99.99,,,-99.99,,2013-06-04 20:13:00,
2013-06-04 16:22:00,91.0,-99.9,29.89,North,-999,-999.0,-999.0,-999,-99.99,,,-99.99,,2013-06-04 20:22:00,
2013-06-04 16:33:00,92.0,-99.9,-100.00,North,-999,-999.0,-999.0,-999,-99.99,,,-99.99,,2013-06-04 20:33:00,
2013-06-04 16:42:00,89.0,-99.9,29.88,North,-999,-999.0,-999.0,-999,-99.99,,,-99.99,,2013-06-04 20:42:00,
2013-06-04 16:53:00,89.0,-99.9,29.88,North,-999,-999.0,-999.0,-999,-99.99,,,-99.99,,2013-06-04 20:53:00,
2013-06-04 17:02:00,90.0,-99.9,-100.00,North,-999,-999.0,-999.0,-999,-99.99,,,-99.99,,2013-06-04 21:02:00,
2013-06-04 17:12:00,91.0,-99.9,29.87,North,-999,-999.0,-999.0,-999,-99.99,,,-99.99,,2013-06-04 21:12:00,
2013-06-04 17:22:00,91.0,-99.9,-100.00,North,-999,-999.0,-999.0,-999,-99.99,,,-99.99,,2013-06-04 21:22:00,
2013-06-04 17:43:00,92.0,-99.9,29.87,North,-999,-999.0,-999.0,-999,-99.99,,,-99.99,,2013-06-04 21:43:00,
2013-06-04 18:03:00,92.0,-99.9,-100.00,North,-999,-999.0,-999.0,-999,-99.99,,,-99.99,,2013-06-04 22:03:00,
2013-06-04 18:13:00,93.0,-99.9,29.86,North,-999,-999.0,-999.0,-999,-99.99,,,-99.99,,2013-06-04 22:13:00,
2013-06-04 18:42:00,93.0,-99.9,29.85,North,-999,-999.0,-999.0,-999,-99.99,,,-99.99,,2013-06-04 22:42:00,
2013-06-04 18:52:00,92.0,-99.9,-100.00,North,-999,-999.0,-999.0,-999,-99.99,,,-99.99,,2013-06-04 22:52:00,
2013-06-04 19:02:00,92.0,-99.9,-100.00,North,-999,-999.0,-999.0,-999,-99.99,,,-99.99,,2013-06-04 23:02:00,
2013-06-04 19:12:00,91.0,-99.9,29.85,North,-999,-999.0,-999.0,-999,-99.99,,,-99.99,,2013-06-04 23:12:00,
2013-06-04 19:22:00,92.0,-99.9,-100.00,North,-999,-999.0,-999.0,-999,-99.99,,,-99.99,,2013-06-04 23:22:00,
2013-06-04 19:32:00,92.0,-99.9,-100.00,North,-999,-999.0,-999.0,-999,-99.99,,,-99.99,,2013-06-04 23:32:00,
2013-06-04 19:42:00,93.0,-99.9,29.85,North,-999,-999.0,-999.0,-999,-99.99,,,-99.99,,2013-06-04 23:42:00,
2013-06-04 19:52:00,93.0,-99.9,-100.00,North,-999,-999.0,-999.0,-999,-99.99,,,-99.99,,2013-06-04 23:52:00,
2013-06-04 20:02:00,92.0,-99.9,-100.00,North,-999,-999.0,-999.0,-999,-99.99,,,-99.99,,2013-06-05 00:02:00,
2013-06-04 20:12:00,92.0,-99.9,29.84,North,-999,-999.0,-999.0,-999,-99.99,,,-99.99,,2013-06-05 00:12:00,
2013-06-04 20:22:00,91.0,-99.9,29.84,North,-999,-999.0,-999.0,-999,-99.99,,,-99.99,,2013-06-05 00:22:00,
2013-06-04 20:33:00,92.0,-99.9,29.84,North,-999,-999.0,-999.0,-999,-99.99,,,-99.99,,2013-06-05 00:33:00,
2013-06-04 20:42:00,91.0,-99.9,29.85,North,-999,-999.0,-999.0,-999,-99.99,,,-99.99,,2013-06-05 00:42:00,
2013-06-04 20:52:00,91.0,-99.9,29.85,North,-999,-999.0,-999.0,-999,-99.99,,,-99.99,,2013-06-05 00:52:00,
2013-06-04 21:03:00,89.0,-99.9,-100.00,North,-999,-999.0,-999.0,-999,-99.99,,,-99.99,,2013-06-05 01:03:00,
2013-06-04 21:12:00,88.0,-99.9,29.86,North,-999,-999.0,-999.0,-999,-99.99,,,-99.99,,2013-06-05 01:12:00,
2013-06-04 21:32:00,85.0,-99.9,-100.00,North,-999,-999.0,-999.0,-999,-99.99,,,-99.99,,2013-06-05 01:32:00,
2013-06-04 21:42:00,85.0,-99.9,-100.00,North,-999,-999.0,-999.0,-999,-99.99,,,-99.99,,2013-06-05 01:42:00,
2013-06-04 21:52:00,84.0,-99.9,-100.00,North,-999,-999.0,-999.0,-999,-99.99,,,-99.99,,2013-06-05 01:52:00,
2013-06-04 22:12:00,83.0,-99.9,29.88,North,-999,-999.0,-999.0,-999,-99.99,,,-99.99,,2013-06-05 02:12:00,
2013-06-04 22:22:00,83.0,-99.9,-100.00,North,-999,-999.0,-999.0,-999,-99.99,,,-99.99,,2013-06-05 02:22:00,
2013-06-04 22:42:00,83.0,-99.9,29.89,North,-999,-999.0,-999.0,-999,-99.99,,,-99.99,,2013-06-05 02:42:00,
2013-06-04 23:12:00,82.0,-99.9,29.90,North,-999,-999.0,-999.0,-999,-99.99,,,-99.99,,2013-06-05 03:12:00,
2013-06-04 23:22:00,82.0,-99.9,-100.00,North,-999,-999.0,-999.0,-999,-99.99,,,-99.99,,2013-06-05 03:22:00,
2013-06-04 23:33:00,82.0,-99.9,-100.00,North,-999,-999.0,-999.0,-999,-99.99,,,-99.99,,2013-06-05 03:33:00,
2013-06-04 23:43:00,82.0,-99.9,29.91,North,-999,-999.0,-999.0,-999,-99.99,,,-99.99,,2013-06-05 03:43:00,
2013-06-04 23:53:00,82.0,-99.9,-100.00,North,-999,-999.0,-999.0,-999,-99.99,,,-99.99,,2013-06-05 03:53:00,